Regional Weather Roundup
Issued by NWS

Home | Current Version | Previous Version | Graphics & Text | Print | Product List | Glossary Off
Versions: 1 2 3 4 5 6 7 8 9 10 11 12 13 14 15 16 17 18 19 20 21 22 23 24 25 26 27 28 29 30 31 32 33 34 35 36 37 38 39 40 41 42 43 44 45 46 47 48 49 50

000
ASUS43 KFSD 260902
RWRSD

WEATHER ROUNDUP FOR SOUTH DAKOTA
NATIONAL WEATHER SERVICE SIOUX FALLS SD
400 AM CDT SUN APR 26 2015

NOTE: "FAIR" INDICATES FEW OR NO CLOUDS BELOW 12,000 FEET WITH NO
SIGNIFICANT WEATHER AND/OR OBSTRUCTIONS TO VISIBILITY.


SDZ001>005-009-010-012>017-261000-
NORTHWEST AND NORTH CENTRAL SOUTH DAKOTA

CITY           SKY/WX    TMP DP  RH WIND       PRES   REMARKS
BUFFALO          N/A     43  40  89 N8        29.86R
FAITH            N/A     50  45  83 CALM      29.90R
MOBRIDGE       CLOUDY    52  43  71 SE15      29.91S
$$

SDZ012>016-024>037-041>051-057-063-072>074-261000-
SOUTHWEST AND SOUTH CENTRAL SOUTH DAKOTA

CITY           SKY/WX    TMP DP  RH WIND       PRES   REMARKS
RAPID CTY ARPT CLOUDY    43  41  93 N17       29.87F
PIERRE         CLOUDY    50  43  77 SE12      29.93R
CUSTER         CLOUDY    43  41  93 E5        29.87F
ELLSWORTH AFB  CLOUDY    43  43 100 N18G24    29.88
PHILIP         CLOUDY    50  48  93 E6        29.89R
PINE RIDGE     CLOUDY    50  47  89 E7        29.86F
WINNER         CLOUDY    51  42  71 SE9       29.94R
$$

SDZ004>011-016>023-039-040-261000-
NORTHEAST SOUTH DAKOTA

CITY           SKY/WX    TMP DP  RH WIND       PRES   REMARKS
ABERDEEN       CLOUDY    48  40  73 E6        29.99R
WATERTOWN      CLEAR     39  35  86 CALM      29.99R
BROOKINGS      CLEAR     39  37  93 E3        30.00R
SISSETON         N/A     35  32  88 CALM      30.02R
$$

SDZ017-020-022-023-036>040-048>070-261000-
SOUTHEAST SOUTH DAKOTA

CITY           SKY/WX    TMP DP  RH WIND       PRES   REMARKS
SIOUX FALLS    PTCLDY    36  34  92 NE5       29.97S
HURON          PTCLDY    41  38  89 SE6       29.97R
MITCHELL       PTCLDY    42  39  89 E7        29.98R
YANKTON        CLOUDY    46  39  76 E6        29.96R
$$

ABBREVIATIONS USED IN REMARKS
   TC - TEMPERATURE IN CELSIUS
  WCI - WIND CHILL INDEX
   HX - HEAT INDEX
  VSB - VISIBILITY



USA.gov is the U.S. government's official web portal to all federal, state and local government web resources and services.